Time,TemperatureF,DewpointF,PressureIn,WindDirection,WindDirectionDegrees,WindSpeedMPH,WindSpeedGustMPH,Humidity,HourlyPrecipIn,Conditions,Clouds,dailyrainin,SoftwareType,DateUTC
2013-06-06 00:00:00,58.7,47.4,30.10,North,-999,0.0,0.0,66,0.00,,,-99.99,WeatherLink 5.5,2013-06-06 04:00:00,
2013-06-06 00:05:00,58.4,47.5,30.10,North,-999,0.0,0.0,67,0.00,,,-99.99,WeatherLink 5.5,2013-06-06 04:05:00,
2013-06-06 00:10:00,58.3,47.4,30.10,North,-999,0.0,0.0,67,0.00,,,-99.99,WeatherLink 5.5,2013-06-06 04:10:00,
2013-06-06 00:15:00,58.3,47.4,30.10,North,-999,0.0,0.0,67,0.00,,,-99.99,WeatherLink 5.5,2013-06-06 04:15:00,
2013-06-06 00:20:00,58.0,47.9,30.10,North,-999,0.0,0.0,69,0.00,,,-99.99,WeatherLink 5.5,2013-06-06 04:20:00,
2013-06-06 00:25:00,57.8,47.7,30.10,North,-999,0.0,0.0,69,0.00,,,-99.99,WeatherLink 5.5,2013-06-06 04:25:00,
2013-06-06 00:30:00,57.8,47.7,30.10,North,-999,0.0,0.0,69,0.00,,,-99.99,WeatherLink 5.5,2013-06-06 04:30:00,
2013-06-06 00:35:00,57.5,47.8,30.09,North,-999,0.0,0.0,70,0.00,,,-99.99,WeatherLink 5.5,2013-06-06 04:35:00,
2013-06-06 00:40:00,57.3,48.0,30.09,North,-999,0.0,0.0,71,0.00,,,-99.99,WeatherLink 5.5,2013-06-06 04:40:00,
2013-06-06 00:45:00,57.3,48.0,30.09,North,-999,0.0,0.0,71,0.00,,,-99.99,WeatherLink 5.5,2013-06-06 04:45:00,
2013-06-06 00:50:00,57.2,47.9,30.10,North,-999,0.0,0.0,71,0.00,,,-99.99,WeatherLink 5.5,2013-06-06 04:50:00,
2013-06-06 00:55:00,57.2,48.3,30.10,North,-999,0.0,0.0,72,0.00,,,-99.99,WeatherLink 5.5,2013-06-06 04:55:00,
2013-06-06 01:00:00,57.2,48.3,30.10,North,-999,0.0,0.0,72,0.00,,,-99.99,WeatherLink 5.5,2013-06-06 05:00:00,
2013-06-06 01:05:00,57.0,48.1,30.10,SE,135,0.0,1.0,72,0.00,,,-99.99,WeatherLink 5.5,2013-06-06 05:05:00,
2013-06-06 01:10:00,57.0,48.1,30.10,North,-999,0.0,1.0,72,0.00,,,-99.99,WeatherLink 5.5,2013-06-06 05:10:00,
2013-06-06 01:15:00,57.0,48.1,30.10,North,-999,0.0,1.0,72,0.00,,,-99.99,WeatherLink 5.5,2013-06-06 05:15:00,
2013-06-06 01:20:00,57.0,47.7,30.10,North,-999,0.0,0.0,71,0.00,,,-99.99,WeatherLink 5.5,2013-06-06 05:20:00,
2013-06-06 01:25:00,57.2,47.9,30.10,North,-999,0.0,0.0,71,0.00,,,-99.99,WeatherLink 5.5,2013-06-06 05:25:00,
2013-06-06 01:30:00,57.2,47.9,30.10,North,-999,0.0,0.0,71,0.00,,,-99.99,WeatherLink 5.5,2013-06-06 05:30:00,
2013-06-06 01:35:00,57.2,47.5,30.10,North,-999,0.0,0.0,70,0.00,,,-99.99,WeatherLink 5.5,2013-06-06 05:35:00,
2013-06-06 01:40:00,57.2,47.5,30.10,North,-999,0.0,0.0,70,0.00,,,-99.99,WeatherLink 5.5,2013-06-06 05:40:00,
2013-06-06 01:45:00,57.2,47.5,30.10,North,-999,0.0,0.0,70,0.00,,,-99.99,WeatherLink 5.5,2013-06-06 05:45:00,
2013-06-06 01:50:00,57.0,47.3,30.09,North,-999,0.0,0.0,70,0.00,,,-99.99,WeatherLink 5.5,2013-06-06 05:50:00,
2013-06-06 01:55:00,56.9,47.6,30.09,North,-999,0.0,0.0,71,0.00,,,-99.99,WeatherLink 5.5,2013-06-06 05:55:00,
2013-06-06 02:00:00,56.9,47.6,30.09,North,-999,0.0,0.0,71,0.00,,,-99.99,WeatherLink 5.5,2013-06-06 06:00:00,
2013-06-06 02:05:00,56.7,47.4,30.09,North,-999,0.0,0.0,71,0.00,,,-99.99,WeatherLink 5.5,2013-06-06 06:05:00,
2013-06-06 02:10:00,56.7,47.4,30.09,North,-999,0.0,0.0,71,0.00,,,-99.99,WeatherLink 5.5,2013-06-06 06:10:00,
2013-06-06 02:15:00,56.7,47.4,30.09,North,-999,0.0,0.0,71,0.00,,,-99.99,WeatherLink 5.5,2013-06-06 06:15:00,
2013-06-06 02:20:00,56.7,47.8,30.10,North,-999,0.0,0.0,72,0.00,,,-99.99,WeatherLink 5.5,2013-06-06 06:20:00,
2013-06-06 02:25:00,56.7,47.8,30.10,North,-999,0.0,0.0,72,0.00,,,-99.99,WeatherLink 5.5,2013-06-06 06:25:00,
2013-06-06 02:30:00,56.7,47.8,30.10,North,-999,0.0,0.0,72,0.00,,,-99.99,WeatherLink 5.5,2013-06-06 06:30:00,
2013-06-06 02:35:00,56.9,48.0,30.11,North,-999,0.0,0.0,72,0.00,,,-99.99,WeatherLink 5.5,2013-06-06 06:35:00,
2013-06-06 02:40:00,56.9,48.0,30.11,North,-999,0.0,0.0,72,0.00,,,-99.99,WeatherLink 5.5,2013-06-06 06:40:00,
2013-06-06 02:45:00,56.9,48.0,30.11,North,-999,0.0,0.0,72,0.00,,,-99.99,WeatherLink 5.5,2013-06-06 06:45:00,
2013-06-06 02:50:00,56.7,48.1,30.12,North,-999,0.0,0.0,73,0.00,,,-99.99,WeatherLink 5.5,2013-06-06 06:50:00,
2013-06-06 02:55:00,56.7,47.4,30.12,North,-999,0.0,0.0,71,0.00,,,-99.99,WeatherLink 5.5,2013-06-06 06:55:00,
2013-06-06 03:00:00,56.7,47.4,30.12,North,-999,0.0,0.0,71,0.00,,,-99.99,WeatherLink 5.5,2013-06-06 07:00:00,
2013-06-06 03:05:00,56.7,47.8,30.12,North,-999,0.0,0.0,72,0.00,,,-99.99,WeatherLink 5.5,2013-06-06 07:05:00,
2013-06-06 03:10:00,56.6,47.7,30.12,North,-999,0.0,0.0,72,0.00,,,-99.99,WeatherLink 5.5,2013-06-06 07:10:00,
2013-06-06 03:15:00,56.6,47.7,30.12,North,-999,0.0,0.0,72,0.00,,,-99.99,WeatherLink 5.5,2013-06-06 07:15:00,
2013-06-06 03:20:00,56.6,47.7,30.11,North,-999,0.0,0.0,72,0.00,,,-99.99,WeatherLink 5.5,2013-06-06 07:20:00,
2013-06-06 03:25:00,56.4,47.5,30.11,North,-999,0.0,0.0,72,0.00,,,-99.99,WeatherLink 5.5,2013-06-06 07:25:00,
2013-06-06 03:30:00,56.4,47.5,30.11,North,-999,0.0,0.0,72,0.00,,,-99.99,WeatherLink 5.5,2013-06-06 07:30:00,
2013-06-06 03:35:00,56.2,47.3,30.11,North,-999,0.0,0.0,72,0.00,,,-99.99,WeatherLink 5.5,2013-06-06 07:35:00,
2013-06-06 03:40:00,55.9,47.4,30.11,North,-999,0.0,0.0,73,0.00,,,-99.99,WeatherLink 5.5,2013-06-06 07:40:00,
2013-06-06 03:45:00,55.9,47.4,30.11,North,-999,0.0,0.0,73,0.00,,,-99.99,WeatherLink 5.5,2013-06-06 07:45:00,
2013-06-06 03:50:00,55.4,47.2,30.11,North,-999,0.0,0.0,74,0.00,,,-99.99,WeatherLink 5.5,2013-06-06 07:50:00,
2013-06-06 03:55:00,55.1,47.3,30.11,North,-999,0.0,0.0,75,0.00,,,-99.99,WeatherLink 5.5,2013-06-06 07:55:00,
2013-06-06 04:00:00,55.1,47.3,30.11,North,-999,0.0,0.0,75,0.00,,,-99.99,WeatherLink 5.5,2013-06-06 08:00:00,
2013-06-06 04:05:00,54.7,47.3,30.12,North,-999,0.0,0.0,76,0.00,,,-99.99,WeatherLink 5.5,2013-06-06 08:05:00,
2013-06-06 04:10:00,54.5,47.1,30.12,North,-999,0.0,0.0,76,0.00,,,-99.99,WeatherLink 5.5,2013-06-06 08:10:00,
2013-06-06 04:15:00,54.5,47.1,30.12,North,-999,0.0,0.0,76,0.00,,,-99.99,WeatherLink 5.5,2013-06-06 08:15:00,
2013-06-06 04:20:00,54.2,47.1,30.12,North,-999,0.0,0.0,77,0.00,,,-99.99,WeatherLink 5.5,2013-06-06 08:20:00,
2013-06-06 04:25:00,54.1,47.0,30.12,North,-999,0.0,0.0,77,0.00,,,-99.99,WeatherLink 5.5,2013-06-06 08:25:00,
2013-06-06 04:30:00,54.1,47.0,30.12,North,-999,0.0,0.0,77,0.00,,,-99.99,WeatherLink 5.5,2013-06-06 08:30:00,
2013-06-06 04:35:00,53.6,46.9,30.12,North,-999,0.0,0.0,78,0.00,,,-99.99,WeatherLink 5.5,2013-06-06 08:35:00,
2013-06-06 04:40:00,53.5,46.8,30.12,North,-999,0.0,0.0,78,0.00,,,-99.99,WeatherLink 5.5,2013-06-06 08:40:00,
2013-06-06 04:45:00,53.5,46.8,30.12,North,-999,0.0,0.0,78,0.00,,,-99.99,WeatherLink 5.5,2013-06-06 08:45:00,
2013-06-06 04:50:00,53.2,46.9,30.11,North,-999,0.0,0.0,79,0.00,,,-99.99,WeatherLink 5.5,2013-06-06 08:50:00,
2013-06-06 04:55:00,52.9,46.6,30.11,North,-999,0.0,0.0,79,0.00,,,-99.99,WeatherLink 5.5,2013-06-06 08:55:00,
2013-06-06 05:00:00,52.9,46.6,30.11,North,-999,0.0,0.0,79,0.00,,,-99.99,WeatherLink 5.5,2013-06-06 09:00:00,
2013-06-06 05:05:00,52.8,46.8,30.12,North,-999,0.0,0.0,80,0.00,,,-99.99,WeatherLink 5.5,2013-06-06 09:05:00,
2013-06-06 05:10:00,52.6,46.6,30.12,North,-999,0.0,0.0,80,0.00,,,-99.99,WeatherLink 5.5,2013-06-06 09:10:00,
2013-06-06 05:15:00,52.6,46.6,30.12,North,-999,0.0,0.0,80,0.00,,,-99.99,WeatherLink 5.5,2013-06-06 09:15:00,
2013-06-06 05:20:00,52.5,46.5,30.12,North,-999,0.0,0.0,80,0.00,,,-99.99,WeatherLink 5.5,2013-06-06 09:20:00,
2013-06-06 05:25:00,52.3,46.6,30.12,North,-999,0.0,0.0,81,0.00,,,-99.99,WeatherLink 5.5,2013-06-06 09:25:00,
2013-06-06 05:30:00,52.3,46.6,30.12,North,-999,0.0,0.0,81,0.00,,,-99.99,WeatherLink 5.5,2013-06-06 09:30:00,
2013-06-06 05:35:00,52.2,46.5,30.12,North,-999,0.0,0.0,81,0.00,,,-99.99,WeatherLink 5.5,2013-06-06 09:35:00,
2013-06-06 05:40:00,52.2,46.5,30.12,North,-999,0.0,0.0,81,0.00,,,-99.99,WeatherLink 5.5,2013-06-06 09:40:00,
2013-06-06 05:45:00,52.2,46.5,30.12,North,-999,0.0,0.0,81,0.00,,,-99.99,WeatherLink 5.5,2013-06-06 09:45:00,
2013-06-06 05:50:00,52.2,46.5,30.12,North,-999,0.0,0.0,81,0.00,,,-99.99,WeatherLink 5.5,2013-06-06 09:50:00,
2013-06-06 05:55:00,52.2,46.5,30.12,North,-999,0.0,0.0,81,0.00,,,-99.99,WeatherLink 5.5,2013-06-06 09:55:00,
2013-06-06 06:00:00,52.2,46.5,30.12,North,-999,0.0,0.0,81,0.00,,,-99.99,WeatherLink 5.5,2013-06-06 10:00:00,
2013-06-06 06:05:00,52.3,47.0,30.13,North,-999,0.0,0.0,82,0.00,,,-99.99,WeatherLink 5.5,2013-06-06 10:05:00,
2013-06-06 06:10:00,52.5,47.2,30.13,North,-999,0.0,0.0,82,0.00,,,-99.99,WeatherLink 5.5,2013-06-06 10:10:00,
2013-06-06 06:15:00,52.5,47.2,30.13,North,-999,0.0,0.0,82,0.00,,,-99.99,WeatherLink 5.5,2013-06-06 10:15:00,
2013-06-06 06:20:00,52.8,47.5,30.13,North,-999,0.0,0.0,82,0.00,,,-99.99,WeatherLink 5.5,2013-06-06 10:20:00,
2013-06-06 06:25:00,52.9,47.6,30.13,North,-999,0.0,0.0,82,0.00,,,-99.99,WeatherLink 5.5,2013-06-06 10:25:00,
2013-06-06 06:30:00,52.9,47.6,30.13,North,-999,0.0,0.0,82,0.00,,,-99.99,WeatherLink 5.5,2013-06-06 10:30:00,
2013-06-06 06:35:00,53.2,48.2,30.14,North,-999,0.0,0.0,83,0.00,,,-99.99,WeatherLink 5.5,2013-06-06 10:35:00,
2013-06-06 06:40:00,53.5,48.5,30.14,North,-999,0.0,0.0,83,0.00,,,-99.99,WeatherLink 5.5,2013-06-06 10:40:00,
2013-06-06 06:45:00,53.5,48.5,30.14,North,-999,0.0,0.0,83,0.00,,,-99.99,WeatherLink 5.5,2013-06-06 10:45:00,
2013-06-06 06:50:00,54.1,49.1,30.14,North,-999,0.0,0.0,83,0.00,,,-99.99,WeatherLink 5.5,2013-06-06 10:50:00,
2013-06-06 06:55:00,54.2,48.8,30.14,North,-999,0.0,0.0,82,0.00,,,-99.99,WeatherLink 5.5,2013-06-06 10:55:00,
2013-06-06 07:00:00,54.2,48.8,30.14,North,-999,0.0,0.0,82,0.00,,,-99.99,WeatherLink 5.5,2013-06-06 11:00:00,
2013-06-06 07:05:00,54.8,49.4,30.14,North,-999,0.0,0.0,82,0.00,,,-99.99,WeatherLink 5.5,2013-06-06 11:05:00,
2013-06-06 07:10:00,55.0,48.9,30.14,North,-999,0.0,0.0,80,0.00,,,-99.99,WeatherLink 5.5,2013-06-06 11:10:00,
2013-06-06 07:15:00,55.0,48.9,30.14,North,-999,0.0,0.0,80,0.00,,,-99.99,WeatherLink 5.5,2013-06-06 11:15:00,
2013-06-06 07:20:00,55.7,49.3,30.15,North,-999,0.0,0.0,79,0.00,,,-99.99,WeatherLink 5.5,2013-06-06 11:20:00,
2013-06-06 07:25:00,56.4,49.6,30.15,North,-999,0.0,0.0,78,0.00,,,-99.99,WeatherLink 5.5,2013-06-06 11:25:00,
2013-06-06 07:30:00,56.4,49.6,30.15,North,-999,0.0,0.0,78,0.00,,,-99.99,WeatherLink 5.5,2013-06-06 11:30:00,
2013-06-06 07:35:00,57.3,49.4,30.15,North,-999,0.0,0.0,75,0.00,,,-99.99,WeatherLink 5.5,2013-06-06 11:35:00,
2013-06-06 07:40:00,58.0,49.0,30.15,North,-999,0.0,0.0,72,0.00,,,-99.99,WeatherLink 5.5,2013-06-06 11:40:00,
2013-06-06 07:45:00,58.0,49.0,30.15,North,-999,0.0,0.0,72,0.00,,,-99.99,WeatherLink 5.5,2013-06-06 11:45:00,
2013-06-06 07:50:00,58.4,48.3,30.15,North,-999,0.0,0.0,69,0.00,,,-99.99,WeatherLink 5.5,2013-06-06 11:50:00,
2013-06-06 07:55:00,58.7,48.6,30.15,North,-999,0.0,0.0,69,0.00,,,-99.99,WeatherLink 5.5,2013-06-06 11:55:00,
2013-06-06 08:00:00,58.7,48.6,30.15,North,-999,0.0,0.0,69,0.00,,,-99.99,WeatherLink 5.5,2013-06-06 12:00:00,
2013-06-06 08:05:00,59.5,48.5,30.15,North,-999,0.0,0.0,67,0.00,,,-99.99,WeatherLink 5.5,2013-06-06 12:05:00,
2013-06-06 08:10:00,60.1,49.1,30.15,North,-999,0.0,0.0,67,0.00,,,-99.99,WeatherLink 5.5,2013-06-06 12:10:00,
2013-06-06 08:15:00,60.1,49.1,30.15,North,-999,0.0,0.0,67,0.00,,,-99.99,WeatherLink 5.5,2013-06-06 12:15:00,
2013-06-06 08:20:00,61.7,48.5,30.14,North,-999,0.0,0.0,62,0.00,,,-99.99,WeatherLink 5.5,2013-06-06 12:20:00,
2013-06-06 08:25:00,62.1,48.9,30.14,North,-999,0.0,0.0,62,0.00,,,-99.99,WeatherLink 5.5,2013-06-06 12:25:00,
2013-06-06 08:30:00,62.1,48.9,30.14,North,-999,0.0,0.0,62,0.00,,,-99.99,WeatherLink 5.5,2013-06-06 12:30:00,
2013-06-06 08:35:00,63.7,49.1,30.14,North,-999,0.0,0.0,59,0.00,,,-99.99,WeatherLink 5.5,2013-06-06 12:35:00,
2013-06-06 08:40:00,64.2,48.6,30.14,North,-999,0.0,0.0,57,0.00,,,-99.99,WeatherLink 5.5,2013-06-06 12:40:00,
2013-06-06 08:45:00,64.2,48.6,30.14,North,-999,0.0,0.0,57,0.00,,,-99.99,WeatherLink 5.5,2013-06-06 12:45:00,
2013-06-06 08:50:00,64.0,48.5,30.14,North,-999,0.0,0.0,57,0.00,,,-99.99,WeatherLink 5.5,2013-06-06 12:50:00,
2013-06-06 08:55:00,64.4,48.4,30.14,North,-999,0.0,0.0,56,0.00,,,-99.99,WeatherLink 5.5,2013-06-06 12:55:00,
2013-06-06 09:00:00,64.4,48.4,30.14,North,-999,0.0,0.0,56,0.00,,,-99.99,WeatherLink 5.5,2013-06-06 13:00:00,
2013-06-06 09:05:00,65.0,48.4,30.14,North,-999,0.0,0.0,55,0.00,,,-99.99,WeatherLink 5.5,2013-06-06 13:05:00,
2013-06-06 09:10:00,65.7,48.1,30.14,North,-999,0.0,0.0,53,0.00,,,-99.99,WeatherLink 5.5,2013-06-06 13:10:00,
2013-06-06 09:15:00,65.7,48.1,30.14,North,-999,0.0,0.0,53,0.00,,,-99.99,WeatherLink 5.5,2013-06-06 13:15:00,
2013-06-06 09:20:00,65.8,45.6,30.14,North,-999,0.0,0.0,48,0.00,,,-99.99,WeatherLink 5.5,2013-06-06 13:20:00,
2013-06-06 09:25:00,65.5,46.9,30.14,North,-999,0.0,0.0,51,0.00,,,-99.99,WeatherLink 5.5,2013-06-06 13:25:00,
2013-06-06 09:30:00,65.5,46.9,30.14,North,-999,0.0,0.0,51,0.00,,,-99.99,WeatherLink 5.5,2013-06-06 13:30:00,
2013-06-06 09:35:00,66.6,47.4,30.14,North,-999,0.0,0.0,50,0.00,,,-99.99,WeatherLink 5.5,2013-06-06 13:35:00,
2013-06-06 09:40:00,67.0,47.2,30.14,North,-999,0.0,0.0,49,0.00,,,-99.99,WeatherLink 5.5,2013-06-06 13:40:00,
2013-06-06 09:45:00,67.0,47.2,30.14,North,-999,0.0,0.0,49,0.00,,,-99.99,WeatherLink 5.5,2013-06-06 13:45:00,
2013-06-06 09:50:00,67.8,46.3,30.13,North,-999,0.0,0.0,46,0.00,,,-99.99,WeatherLink 5.5,2013-06-06 13:50:00,
2013-06-06 09:55:00,68.1,47.1,30.13,NE,45,0.0,1.0,47,0.00,,,-99.99,WeatherLink 5.5,2013-06-06 13:55:00,
2013-06-06 10:00:00,68.1,47.1,30.13,NE,45,0.0,1.0,47,0.00,,,-99.99,WeatherLink 5.5,2013-06-06 14:00:00,
2013-06-06 10:05:00,68.1,45.9,30.13,North,-999,0.0,0.0,45,0.00,,,-99.99,WeatherLink 5.5,2013-06-06 14:05:00,
2013-06-06 10:10:00,68.5,45.7,30.13,ENE,67,0.0,1.0,44,0.00,,,-99.99,WeatherLink 5.5,2013-06-06 14:10:00,
2013-06-06 10:15:00,68.5,45.7,30.13,ENE,67,0.0,1.0,44,0.00,,,-99.99,WeatherLink 5.5,2013-06-06 14:15:00,
2013-06-06 10:20:00,68.5,44.5,30.13,North,-999,0.0,0.0,42,0.00,,,-99.99,WeatherLink 5.5,2013-06-06 14:20:00,
2013-06-06 10:25:00,68.3,44.3,30.13,ESE,112,1.0,8.0,42,0.00,,,-99.99,WeatherLink 5.5,2013-06-06 14:25:00,
2013-06-06 10:30:00,68.3,44.3,30.13,ESE,112,1.0,8.0,42,0.00,,,-99.99,WeatherLink 5.5,2013-06-06 14:30:00,
2013-06-06 10:35:00,69.1,45.7,30.12,SE,135,2.0,7.0,43,0.00,,,-99.99,WeatherLink 5.5,2013-06-06 14:35:00,
2013-06-06 10:40:00,69.0,44.3,30.12,SE,135,0.0,4.0,41,0.00,,,-99.99,WeatherLink 5.5,2013-06-06 14:40:00,
2013-06-06 10:45:00,69.0,44.3,30.12,SE,135,0.0,4.0,41,0.00,,,-99.99,WeatherLink 5.5,2013-06-06 14:45:00,
2013-06-06 10:50:00,68.6,45.8,30.12,ENE,67,0.0,1.0,44,0.00,,,-99.99,WeatherLink 5.5,2013-06-06 14:50:00,
2013-06-06 10:55:00,68.5,45.1,30.12,North,-999,0.0,0.0,43,0.00,,,-99.99,WeatherLink 5.5,2013-06-06 14:55:00,
2013-06-06 11:00:00,68.5,45.1,30.12,North,-999,0.0,0.0,43,0.00,,,-99.99,WeatherLink 5.5,2013-06-06 15:00:00,
2013-06-06 11:05:00,69.0,46.8,30.12,ENE,67,0.0,1.0,45,0.00,,,-99.99,WeatherLink 5.5,2013-06-06 15:05:00,
2013-06-06 11:10:00,69.0,44.9,30.12,SE,135,1.0,8.0,42,0.00,,,-99.99,WeatherLink 5.5,2013-06-06 15:10:00,
2013-06-06 11:15:00,69.0,44.9,30.12,SE,135,1.0,8.0,42,0.00,,,-99.99,WeatherLink 5.5,2013-06-06 15:15:00,
2013-06-06 11:20:00,68.8,45.4,30.13,ESE,112,0.0,4.0,43,0.00,,,-99.99,WeatherLink 5.5,2013-06-06 15:20:00,
2013-06-06 11:25:00,69.1,45.7,30.13,ESE,112,0.0,2.0,43,0.00,,,-99.99,WeatherLink 5.5,2013-06-06 15:25:00,
2013-06-06 11:30:00,69.1,45.7,30.13,ESE,112,0.0,2.0,43,0.00,,,-99.99,WeatherLink 5.5,2013-06-06 15:30:00,
2013-06-06 11:35:00,69.6,46.1,30.12,ESE,112,0.0,1.0,43,0.00,,,-99.99,WeatherLink 5.5,2013-06-06 15:35:00,
2013-06-06 11:40:00,69.6,45.5,30.12,North,-999,0.0,0.0,42,0.00,,,-99.99,WeatherLink 5.5,2013-06-06 15:40:00,
2013-06-06 11:45:00,69.6,45.5,30.12,North,-999,0.0,0.0,42,0.00,,,-99.99,WeatherLink 5.5,2013-06-06 15:45:00,
2013-06-06 11:50:00,69.6,44.8,30.11,SE,135,2.0,8.0,41,0.00,,,-99.99,WeatherLink 5.5,2013-06-06 15:50:00,
2013-06-06 11:55:00,70.1,44.0,30.11,SE,135,1.0,4.0,39,0.00,,,-99.99,WeatherLink 5.5,2013-06-06 15:55:00,
2013-06-06 12:00:00,70.1,44.0,30.11,SE,135,1.0,4.0,39,0.00,,,-99.99,WeatherLink 5.5,2013-06-06 16:00:00,
2013-06-06 12:05:00,70.6,43.7,30.12,ESE,112,1.0,6.0,38,0.00,,,-99.99,WeatherLink 5.5,2013-06-06 16:05:00,
2013-06-06 12:10:00,70.5,41.5,30.12,SE,135,2.0,7.0,35,0.00,,,-99.99,WeatherLink 5.5,2013-06-06 16:10:00,
2013-06-06 12:15:00,70.5,41.5,30.12,SE,135,2.0,7.0,35,0.00,,,-99.99,WeatherLink 5.5,2013-06-06 16:15:00,
2013-06-06 12:20:00,70.3,43.5,30.12,SSE,157,4.0,8.0,38,0.00,,,-99.99,WeatherLink 5.5,2013-06-06 16:20:00,
2013-06-06 12:25:00,70.6,45.1,30.12,SSE,157,0.0,4.0,40,0.00,,,-99.99,WeatherLink 5.5,2013-06-06 16:25:00,
2013-06-06 12:30:00,70.6,45.1,30.12,SSE,157,0.0,4.0,40,0.00,,,-99.99,WeatherLink 5.5,2013-06-06 16:30:00,
2013-06-06 12:35:00,71.3,44.4,30.10,SE,135,2.0,8.0,38,0.00,,,-99.99,WeatherLink 5.5,2013-06-06 16:35:00,
2013-06-06 12:40:00,71.5,45.2,30.10,East,90,0.0,6.0,39,0.00,,,-99.99,WeatherLink 5.5,2013-06-06 16:40:00,
2013-06-06 12:45:00,71.5,45.2,30.10,East,90,0.0,6.0,39,0.00,,,-99.99,WeatherLink 5.5,2013-06-06 16:45:00,
2013-06-06 12:50:00,72.2,43.8,30.10,SE,135,2.0,7.0,36,0.00,,,-99.99,WeatherLink 5.5,2013-06-06 16:50:00,
2013-06-06 12:55:00,72.5,45.4,30.10,ENE,67,2.0,9.0,38,0.00,,,-99.99,WeatherLink 5.5,2013-06-06 16:55:00,
2013-06-06 13:00:00,72.5,45.4,30.10,ENE,67,2.0,9.0,38,0.00,,,-99.99,WeatherLink 5.5,2013-06-06 17:00:00,
2013-06-06 13:05:00,73.0,44.5,30.09,ESE,112,0.0,2.0,36,0.00,,,-99.99,WeatherLink 5.5,2013-06-06 17:05:00,
2013-06-06 13:10:00,73.4,46.2,30.09,NE,45,0.0,7.0,38,0.00,,,-99.99,WeatherLink 5.5,2013-06-06 17:10:00,
2013-06-06 13:15:00,73.4,46.2,30.09,NE,45,0.0,7.0,38,0.00,,,-99.99,WeatherLink 5.5,2013-06-06 17:15:00,
2013-06-06 13:20:00,72.9,43.6,30.09,ESE,112,1.0,6.0,35,0.00,,,-99.99,WeatherLink 5.5,2013-06-06 17:20:00,
2013-06-06 13:25:00,72.5,42.5,30.09,ESE,112,1.0,7.0,34,0.00,,,-99.99,WeatherLink 5.5,2013-06-06 17:25:00,
2013-06-06 13:30:00,72.5,42.5,30.09,ESE,112,1.0,7.0,34,0.00,,,-99.99,WeatherLink 5.5,2013-06-06 17:30:00,
2013-06-06 13:35:00,72.2,40.7,30.09,ESE,112,3.0,7.0,32,0.00,,,-99.99,WeatherLink 5.5,2013-06-06 17:35:00,
2013-06-06 13:40:00,72.4,43.9,30.09,NE,45,1.0,6.0,36,0.00,,,-99.99,WeatherLink 5.5,2013-06-06 17:40:00,
2013-06-06 13:45:00,72.4,43.9,30.09,NE,45,1.0,6.0,36,0.00,,,-99.99,WeatherLink 5.5,2013-06-06 17:45:00,
2013-06-06 13:50:00,72.4,44.6,30.09,ESE,112,0.0,1.0,37,0.00,,,-99.99,WeatherLink 5.5,2013-06-06 17:50:00,
2013-06-06 13:55:00,72.4,42.4,30.09,ESE,112,0.0,1.0,34,0.00,,,-99.99,WeatherLink 5.5,2013-06-06 17:55:00,
2013-06-06 14:00:00,72.4,42.4,30.09,ESE,112,0.0,1.0,34,0.00,,,-99.99,WeatherLink 5.5,2013-06-06 18:00:00,
2013-06-06 14:05:00,72.4,43.2,30.08,SE,135,4.0,13.0,35,0.00,,,-99.99,WeatherLink 5.5,2013-06-06 18:05:00,
2013-06-06 14:10:00,72.7,44.9,30.08,SE,135,1.0,4.0,37,0.00,,,-99.99,WeatherLink 5.5,2013-06-06 18:10:00,
2013-06-06 14:15:00,72.7,44.9,30.08,SE,135,1.0,4.0,37,0.00,,,-99.99,WeatherLink 5.5,2013-06-06 18:15:00,
2013-06-06 14:20:00,72.7,44.9,30.08,SE,135,2.0,9.0,37,0.00,,,-99.99,WeatherLink 5.5,2013-06-06 18:20:00,
2013-06-06 14:25:00,72.7,42.7,30.08,East,90,3.0,10.0,34,0.00,,,-99.99,WeatherLink 5.5,2013-06-06 18:25:00,
2013-06-06 14:30:00,72.7,42.7,30.08,East,90,3.0,10.0,34,0.00,,,-99.99,WeatherLink 5.5,2013-06-06 18:30:00,
2013-06-06 14:35:00,72.7,43.5,30.07,SSE,157,3.0,7.0,35,0.00,,,-99.99,WeatherLink 5.5,2013-06-06 18:35:00,
2013-06-06 14:40:00,72.5,42.5,30.07,ESE,112,1.0,6.0,34,0.00,,,-99.99,WeatherLink 5.5,2013-06-06 18:40:00,
2013-06-06 14:45:00,72.5,42.5,30.07,ESE,112,1.0,6.0,34,0.00,,,-99.99,WeatherLink 5.5,2013-06-06 18:45:00,
2013-06-06 14:50:00,72.4,43.2,30.07,SE,135,2.0,9.0,35,0.00,,,-99.99,WeatherLink 5.5,2013-06-06 18:50:00,
2013-06-06 14:55:00,72.4,44.6,30.07,East,90,4.0,10.0,37,0.00,,,-99.99,WeatherLink 5.5,2013-06-06 18:55:00,
2013-06-06 15:00:00,72.4,44.6,30.07,East,90,4.0,10.0,37,0.00,,,-99.99,WeatherLink 5.5,2013-06-06 19:00:00,
2013-06-06 15:05:00,72.4,43.9,30.07,East,90,0.0,4.0,36,0.00,,,-99.99,WeatherLink 5.5,2013-06-06 19:05:00,
2013-06-06 15:10:00,72.7,44.9,30.07,ESE,112,0.0,4.0,37,0.00,,,-99.99,WeatherLink 5.5,2013-06-06 19:10:00,
2013-06-06 15:15:00,72.7,44.9,30.07,ESE,112,0.0,4.0,37,0.00,,,-99.99,WeatherLink 5.5,2013-06-06 19:15:00,
2013-06-06 15:20:00,73.6,47.1,30.07,ESE,112,1.0,8.0,39,0.00,,,-99.99,WeatherLink 5.5,2013-06-06 19:20:00,
2013-06-06 15:25:00,73.4,44.8,30.07,ESE,112,1.0,7.0,36,0.00,,,-99.99,WeatherLink 5.5,2013-06-06 19:25:00,
2013-06-06 15:30:00,73.4,44.8,30.07,ESE,112,1.0,7.0,36,0.00,,,-99.99,WeatherLink 5.5,2013-06-06 19:30:00,
2013-06-06 15:35:00,72.4,46.7,30.06,East,90,1.0,7.0,40,0.00,,,-99.99,WeatherLink 5.5,2013-06-06 19:35:00,
2013-06-06 15:40:00,71.7,47.4,30.06,ESE,112,2.0,9.0,42,0.00,,,-99.99,WeatherLink 5.5,2013-06-06 19:40:00,
2013-06-06 15:45:00,71.7,47.4,30.06,ESE,112,2.0,9.0,42,0.00,,,-99.99,WeatherLink 5.5,2013-06-06 19:45:00,
2013-06-06 15:50:00,70.6,48.2,30.06,ENE,67,3.0,8.0,45,0.00,,,-99.99,WeatherLink 5.5,2013-06-06 19:50:00,
2013-06-06 15:55:00,70.6,47.6,30.06,ENE,67,2.0,10.0,44,0.00,,,-99.99,WeatherLink 5.5,2013-06-06 19:55:00,
2013-06-06 16:00:00,70.6,47.6,30.06,ENE,67,2.0,10.0,44,0.00,,,-99.99,WeatherLink 5.5,2013-06-06 20:00:00,
2013-06-06 16:05:00,70.3,48.5,30.06,East,90,1.0,4.0,46,0.00,,,-99.99,WeatherLink 5.5,2013-06-06 20:05:00,
2013-06-06 16:10:00,70.1,48.4,30.06,NNE,22,1.0,6.0,46,0.00,,,-99.99,WeatherLink 5.5,2013-06-06 20:10:00,
2013-06-06 16:15:00,70.1,48.4,30.06,NNE,22,1.0,6.0,46,0.00,,,-99.99,WeatherLink 5.5,2013-06-06 20:15:00,
2013-06-06 16:20:00,69.6,47.9,30.06,NE,45,3.0,9.0,46,0.00,,,-99.99,WeatherLink 5.5,2013-06-06 20:20:00,
2013-06-06 16:25:00,69.5,47.8,30.06,ENE,67,1.0,4.0,46,0.00,,,-99.99,WeatherLink 5.5,2013-06-06 20:25:00,
2013-06-06 16:30:00,69.5,47.8,30.06,ENE,67,1.0,4.0,46,0.00,,,-99.99,WeatherLink 5.5,2013-06-06 20:30:00,
2013-06-06 16:35:00,69.1,47.4,30.05,NE,45,3.0,7.0,46,0.00,,,-99.99,WeatherLink 5.5,2013-06-06 20:35:00,
2013-06-06 16:40:00,69.0,47.4,30.05,ENE,67,2.0,9.0,46,0.00,,,-99.99,WeatherLink 5.5,2013-06-06 20:40:00,
2013-06-06 16:45:00,69.0,47.4,30.05,ENE,67,2.0,9.0,46,0.00,,,-99.99,WeatherLink 5.5,2013-06-06 20:45:00,
2013-06-06 16:50:00,68.8,47.7,30.06,ENE,67,2.0,7.0,47,0.00,,,-99.99,WeatherLink 5.5,2013-06-06 20:50:00,
2013-06-06 16:55:00,68.6,47.0,30.06,ENE,67,1.0,7.0,46,0.00,,,-99.99,WeatherLink 5.5,2013-06-06 20:55:00,
2013-06-06 17:00:00,68.6,47.0,30.06,ENE,67,1.0,7.0,46,0.00,,,-99.99,WeatherLink 5.5,2013-06-06 21:00:00,
2013-06-06 17:05:00,68.6,47.0,30.06,ENE,67,1.0,8.0,46,0.00,,,-99.99,WeatherLink 5.5,2013-06-06 21:05:00,
2013-06-06 17:10:00,68.5,46.9,30.06,ENE,67,2.0,8.0,46,0.00,,,-99.99,WeatherLink 5.5,2013-06-06 21:10:00,
2013-06-06 17:15:00,68.5,46.9,30.06,ENE,67,2.0,8.0,46,0.00,,,-99.99,WeatherLink 5.5,2013-06-06 21:15:00,
2013-06-06 17:20:00,68.3,46.7,30.06,ENE,67,2.0,7.0,46,0.00,,,-99.99,WeatherLink 5.5,2013-06-06 21:20:00,
2013-06-06 17:25:00,68.1,47.1,30.06,NE,45,0.0,6.0,47,0.00,,,-99.99,WeatherLink 5.5,2013-06-06 21:25:00,
2013-06-06 17:30:00,68.1,47.1,30.06,NE,45,0.0,6.0,47,0.00,,,-99.99,WeatherLink 5.5,2013-06-06 21:30:00,
2013-06-06 17:35:00,68.0,47.6,30.06,ESE,112,0.0,2.0,48,0.00,,,-99.99,WeatherLink 5.5,2013-06-06 21:35:00,
2013-06-06 17:40:00,68.0,47.0,30.06,ESE,112,0.0,1.0,47,0.00,,,-99.99,WeatherLink 5.5,2013-06-06 21:40:00,
2013-06-06 17:45:00,68.0,47.0,30.06,ESE,112,0.0,1.0,47,0.00,,,-99.99,WeatherLink 5.5,2013-06-06 21:45:00,
2013-06-06 17:50:00,67.8,47.4,30.06,North,-999,0.0,0.0,48,0.00,,,-99.99,WeatherLink 5.5,2013-06-06 21:50:00,
2013-06-06 17:55:00,67.8,47.9,30.06,East,90,0.0,6.0,49,0.00,,,-99.99,WeatherLink 5.5,2013-06-06 21:55:00,
2013-06-06 18:00:00,67.8,47.9,30.06,East,90,0.0,6.0,49,0.00,,,-99.99,WeatherLink 5.5,2013-06-06 22:00:00,
2013-06-06 18:05:00,67.8,47.9,30.07,North,-999,0.0,0.0,49,0.00,,,-99.99,WeatherLink 5.5,2013-06-06 22:05:00,
2013-06-06 18:10:00,67.8,47.9,30.07,East,90,0.0,4.0,49,0.00,,,-99.99,WeatherLink 5.5,2013-06-06 22:10:00,
2013-06-06 18:15:00,67.8,47.9,30.07,East,90,0.0,4.0,49,0.00,,,-99.99,WeatherLink 5.5,2013-06-06 22:15:00,
2013-06-06 18:20:00,67.8,47.9,30.07,North,-999,0.0,0.0,49,0.00,,,-99.99,WeatherLink 5.5,2013-06-06 22:20:00,
2013-06-06 18:25:00,67.6,47.2,30.07,ENE,67,0.0,1.0,48,0.00,,,-99.99,WeatherLink 5.5,2013-06-06 22:25:00,
2013-06-06 18:30:00,67.6,47.2,30.07,ENE,67,0.0,1.0,48,0.00,,,-99.99,WeatherLink 5.5,2013-06-06 22:30:00,
2013-06-06 18:35:00,67.3,45.8,30.07,SE,135,1.0,6.0,46,0.00,,,-99.99,WeatherLink 5.5,2013-06-06 22:35:00,
2013-06-06 18:40:00,67.3,45.8,30.07,SE,135,0.0,1.0,46,0.00,,,-99.99,WeatherLink 5.5,2013-06-06 22:40:00,
2013-06-06 18:45:00,67.3,45.8,30.07,SE,135,0.0,1.0,46,0.00,,,-99.99,WeatherLink 5.5,2013-06-06 22:45:00,
2013-06-06 18:50:00,67.0,44.9,30.07,East,90,1.0,6.0,45,0.00,,,-99.99,WeatherLink 5.5,2013-06-06 22:50:00,
2013-06-06 18:55:00,66.8,44.2,30.07,SE,135,1.0,6.0,44,0.00,,,-99.99,WeatherLink 5.5,2013-06-06 22:55:00,
2013-06-06 19:00:00,66.8,44.2,30.07,SE,135,1.0,6.0,44,0.00,,,-99.99,WeatherLink 5.5,2013-06-06 23:00:00,
2013-06-06 19:05:00,66.6,44.6,30.07,North,-999,0.0,0.0,45,0.00,,,-99.99,WeatherLink 5.5,2013-06-06 23:05:00,
2013-06-06 19:10:00,66.5,44.5,30.07,SE,135,0.0,1.0,45,0.00,,,-99.99,WeatherLink 5.5,2013-06-06 23:10:00,
2013-06-06 19:15:00,66.5,44.5,30.07,SE,135,0.0,1.0,45,0.00,,,-99.99,WeatherLink 5.5,2013-06-06 23:15:00,
2013-06-06 19:20:00,66.1,44.1,30.08,SE,135,0.0,4.0,45,0.00,,,-99.99,WeatherLink 5.5,2013-06-06 23:20:00,
2013-06-06 19:25:00,66.0,44.0,30.08,SE,135,0.0,4.0,45,0.00,,,-99.99,WeatherLink 5.5,2013-06-06 23:25:00,
2013-06-06 19:30:00,66.0,44.0,30.08,SE,135,0.0,4.0,45,0.00,,,-99.99,WeatherLink 5.5,2013-06-06 23:30:00,
2013-06-06 19:35:00,65.7,43.8,30.08,ESE,112,0.0,4.0,45,0.00,,,-99.99,WeatherLink 5.5,2013-06-06 23:35:00,
2013-06-06 19:40:00,65.7,44.3,30.08,SE,135,0.0,2.0,46,0.00,,,-99.99,WeatherLink 5.5,2013-06-06 23:40:00,
2013-06-06 19:45:00,65.7,44.3,30.08,SE,135,0.0,2.0,46,0.00,,,-99.99,WeatherLink 5.5,2013-06-06 23:45:00,
2013-06-06 19:50:00,65.3,44.0,30.08,SE,135,0.0,1.0,46,0.00,,,-99.99,WeatherLink 5.5,2013-06-06 23:50:00,
2013-06-06 19:55:00,65.2,43.9,30.08,SE,135,0.0,1.0,46,0.00,,,-99.99,WeatherLink 5.5,2013-06-06 23:55:00,
2013-06-06 20:00:00,65.2,43.9,30.08,SE,135,0.0,1.0,46,0.00,,,-99.99,WeatherLink 5.5,2013-06-07 00:00:00,
2013-06-06 20:05:00,64.9,44.2,30.08,SE,135,0.0,4.0,47,0.00,,,-99.99,WeatherLink 5.5,2013-06-07 00:05:00,
2013-06-06 20:10:00,64.7,44.0,30.08,North,-999,0.0,0.0,47,0.00,,,-99.99,WeatherLink 5.5,2013-06-07 00:10:00,
2013-06-06 20:15:00,64.7,44.0,30.08,North,-999,0.0,0.0,47,0.00,,,-99.99,WeatherLink 5.5,2013-06-07 00:15:00,
2013-06-06 20:20:00,64.4,44.3,30.08,SE,135,0.0,4.0,48,0.00,,,-99.99,WeatherLink 5.5,2013-06-07 00:20:00,
2013-06-06 20:25:00,64.2,44.6,30.08,ESE,112,0.0,4.0,49,0.00,,,-99.99,WeatherLink 5.5,2013-06-07 00:25:00,
2013-06-06 20:30:00,64.2,44.6,30.08,ESE,112,0.0,4.0,49,0.00,,,-99.99,WeatherLink 5.5,2013-06-07 00:30:00,
2013-06-06 20:35:00,64.0,43.9,30.08,SE,135,0.0,2.0,48,0.00,,,-99.99,WeatherLink 5.5,2013-06-07 00:35:00,
2013-06-06 20:40:00,63.9,44.4,30.08,SE,135,0.0,4.0,49,0.00,,,-99.99,WeatherLink 5.5,2013-06-07 00:40:00,
2013-06-06 20:45:00,63.9,44.4,30.08,SE,135,0.0,4.0,49,0.00,,,-99.99,WeatherLink 5.5,2013-06-07 00:45:00,
2013-06-06 20:50:00,63.6,43.5,30.09,ENE,67,1.0,7.0,48,0.00,,,-99.99,WeatherLink 5.5,2013-06-07 00:50:00,
2013-06-06 20:55:00,63.6,43.0,30.09,East,90,1.0,6.0,47,0.00,,,-99.99,WeatherLink 5.5,2013-06-07 00:55:00,
2013-06-06 21:00:00,63.6,43.0,30.09,East,90,1.0,6.0,47,0.00,,,-99.99,WeatherLink 5.5,2013-06-07 01:00:00,
2013-06-06 21:05:00,63.4,43.4,30.09,North,-999,0.0,0.0,48,0.00,,,-99.99,WeatherLink 5.5,2013-06-07 01:05:00,
2013-06-06 21:10:00,63.2,43.2,30.09,ESE,112,0.0,2.0,48,0.00,,,-99.99,WeatherLink 5.5,2013-06-07 01:10:00,
2013-06-06 21:15:00,63.2,43.2,30.09,ESE,112,0.0,2.0,48,0.00,,,-99.99,WeatherLink 5.5,2013-06-07 01:15:00,
2013-06-06 21:20:00,63.1,43.6,30.08,North,-999,0.0,0.0,49,0.00,,,-99.99,WeatherLink 5.5,2013-06-07 01:20:00,
2013-06-06 21:25:00,62.9,43.4,30.08,SE,135,0.0,2.0,49,0.00,,,-99.99,WeatherLink 5.5,2013-06-07 01:25:00,
2013-06-06 21:30:00,62.9,43.4,30.08,SE,135,0.0,2.0,49,0.00,,,-99.99,WeatherLink 5.5,2013-06-07 01:30:00,
2013-06-06 21:35:00,62.8,43.9,30.08,North,-999,0.0,0.0,50,0.00,,,-99.99,WeatherLink 5.5,2013-06-07 01:35:00,
2013-06-06 21:40:00,62.6,43.2,30.08,North,-999,0.0,0.0,49,0.00,,,-99.99,WeatherLink 5.5,2013-06-07 01:40:00,
2013-06-06 21:45:00,62.6,43.2,30.08,North,-999,0.0,0.0,49,0.00,,,-99.99,WeatherLink 5.5,2013-06-07 01:45:00,
2013-06-06 21:50:00,62.4,43.5,30.07,North,-999,0.0,0.0,50,0.00,,,-99.99,WeatherLink 5.5,2013-06-07 01:50:00,
2013-06-06 21:55:00,62.3,43.4,30.07,ESE,112,0.0,1.0,50,0.00,,,-99.99,WeatherLink 5.5,2013-06-07 01:55:00,
2013-06-06 22:00:00,62.3,43.4,30.07,ESE,112,0.0,1.0,50,0.00,,,-99.99,WeatherLink 5.5,2013-06-07 02:00:00,
2013-06-06 22:05:00,62.3,44.9,30.07,North,-999,0.0,0.0,53,0.00,,,-99.99,WeatherLink 5.5,2013-06-07 02:05:00,
2013-06-06 22:10:00,62.1,45.7,30.07,North,-999,0.0,0.0,55,0.00,,,-99.99,WeatherLink 5.5,2013-06-07 02:10:00,
2013-06-06 22:15:00,62.1,45.7,30.07,North,-999,0.0,0.0,55,0.00,,,-99.99,WeatherLink 5.5,2013-06-07 02:15:00,
2013-06-06 22:20:00,61.5,47.0,30.07,North,-999,0.0,0.0,59,0.00,,,-99.99,WeatherLink 5.5,2013-06-07 02:20:00,
2013-06-06 22:25:00,61.0,47.0,30.07,North,-999,0.0,0.0,60,0.00,,,-99.99,WeatherLink 5.5,2013-06-07 02:25:00,
2013-06-06 22:30:00,61.0,47.0,30.07,North,-999,0.0,0.0,60,0.00,,,-99.99,WeatherLink 5.5,2013-06-07 02:30:00,
2013-06-06 22:35:00,60.6,48.4,30.07,North,-999,0.0,0.0,64,0.00,,,-99.99,WeatherLink 5.5,2013-06-07 02:35:00,
2013-06-06 22:40:00,60.4,48.6,30.07,North,-999,0.0,0.0,65,0.00,,,-99.99,WeatherLink 5.5,2013-06-07 02:40:00,
2013-06-06 22:45:00,60.4,48.6,30.07,North,-999,0.0,0.0,65,0.00,,,-99.99,WeatherLink 5.5,2013-06-07 02:45:00,
2013-06-06 22:50:00,60.2,49.2,30.07,North,-999,0.0,0.0,67,0.00,,,-99.99,WeatherLink 5.5,2013-06-07 02:50:00,
2013-06-06 22:55:00,60.1,49.1,30.07,North,-999,0.0,0.0,67,0.00,,,-99.99,WeatherLink 5.5,2013-06-07 02:55:00,
2013-06-06 23:00:00,60.1,49.1,30.07,North,-999,0.0,0.0,67,0.00,,,-99.99,WeatherLink 5.5,2013-06-07 03:00:00,
2013-06-06 23:05:00,59.6,49.4,30.06,North,-999,0.0,0.0,69,0.00,,,-99.99,WeatherLink 5.5,2013-06-07 03:05:00,
2013-06-06 23:10:00,59.5,49.3,30.06,North,-999,0.0,0.0,69,0.00,,,-99.99,WeatherLink 5.5,2013-06-07 03:10:00,
2013-06-06 23:15:00,59.5,49.3,30.06,North,-999,0.0,0.0,69,0.00,,,-99.99,WeatherLink 5.5,2013-06-07 03:15:00,
2013-06-06 23:20:00,59.0,49.6,30.06,North,-999,0.0,0.0,71,0.00,,,-99.99,WeatherLink 5.5,2013-06-07 03:20:00,
2013-06-06 23:25:00,58.7,49.7,30.06,North,-999,0.0,0.0,72,0.00,,,-99.99,WeatherLink 5.5,2013-06-07 03:25:00,
2013-06-06 23:30:00,58.7,49.7,30.06,North,-999,0.0,0.0,72,0.00,,,-99.99,WeatherLink 5.5,2013-06-07 03:30:00,
2013-06-06 23:35:00,58.6,50.0,30.07,North,-999,0.0,0.0,73,0.00,,,-99.99,WeatherLink 5.5,2013-06-07 03:35:00,
2013-06-06 23:40:00,58.4,50.1,30.07,North,-999,0.0,0.0,74,0.01,,,-99.99,WeatherLink 5.5,2013-06-07 03:40:00,
2013-06-06 23:45:00,58.4,50.1,30.07,North,-999,0.0,0.0,74,0.01,,,-99.99,WeatherLink 5.5,2013-06-07 03:45:00,
2013-06-06 23:50:00,58.3,50.4,30.07,North,-999,0.0,0.0,75,0.01,,,-99.99,WeatherLink 5.5,2013-06-07 03:50:00,
2013-06-06 23:55:00,58.1,50.6,30.07,North,-999,0.0,0.0,76,0.02,,,-99.99,WeatherLink 5.5,2013-06-07 03:55:00,